Find Starlink 32411

NORAD ID: 61547 Int'l Des: 2024-184 Owner: SPXS Country: US Constellation: starlink operational
LEOCIRCULAR

Live-Position

3D-Globus wird geladen...

Über Starlink 32411

Beschreibung wird geladen...

Nächste Überflüge

Passes for default location (London). Set your location on the main map for personalized predictions.

Höhenverlauf

Loading altitude history...

Zweizeiliger Elementsatz

1 61547U 24184R 26126.34565781 -.00001182 00000-0 -27785-4 0 9995
2 61547 53.1608 106.1847 0001176 81.6837 278.4297 15.30193831 87337
Epoch: 6. Mai 2026 • Age: 16 hours

Aktueller Status

Höhe 481.0 km
Geschwindigkeit 7.63 km/s
Subsatellitenpunkt 53.31°N, 36.83°W
Startdatum 15. Okt. 2024
Alter 1.5 years
Typ internet

Technische Details

Klassifizierung Payload
Masse 730.00 kg
Trockenmasse 700.00 kg
Gesamtmasse 730.00 kg
Länge 0.30 m
Durchmesser 4.10 m
Spannweite 29.00 m
Form Box + pan
Hersteller SPXS
Bus-Typ Starlink V2M
Phasenstatus In Orbit
Besitzer/Staat SPXS/US

Most Searched